Regional Weather Roundup
Issued by NWS Wakefield, VA

Home | Current Version | Previous Version | Graphics & Text | Print | Product List | Glossary On
Versions: 1 2 3 4 5 6 7 8 9 10 11 12 13 14 15 16 17 18 19 20 21 22 23 24 25 26
000
ASUS41 KAKQ 062015
RWRAKQ

REGIONAL WEATHER ROUNDUP
NATIONAL WEATHER SERVICE WAKEFIELD VA
300 PM EST TUE DEC 06 2016

Note: "fair" indicates few or no clouds below 12,000 feet with no
significant weather and/or obstructions to visibility. * = Denotes
station may not report precipitation (e.g., rain,snow,etc.),
thunder or fog.

VAZ042-051-052>054-056-062100-
NORTHERN VIRGINIA

CITY           SKY/WX    TMP DP  RH WIND       PRES   REMARKS
WASH NATIONAL  HVY RAIN  42  41  96 N10       29.88R FOG
DULLES         LGT RAIN  39  37  92 N9        29.86F FOG
FORT BELVOIR   NOT AVBL
QUANTICO       LGT RAIN  42  40  92 NE12      29.84F FOG
FREDERICKSBRG* RAIN      42  42 100 N10       29.79F
STAFFORD*      HVY RAIN  40  40 100 NE6       29.85F
WARRENTON      HVY RAIN  40  36  85 N8        29.83F
CULPEPER*      LGT RAIN  40  40  99 N8        29.84F
MANASSAS*      RAIN      39  39 100 N9        29.85F FOG
LEESBURG*      RAIN      41  41 100 MISG      29.87F
WINCHESTER     RAIN      34  34 100 N5        29.85F
FRONT ROYAL*   CLOUDY    36  36 100 N5        29.84F
LURAY*         RAIN      37  37 100 NE3       29.83R
$$

VAZ048-049-060>072-079>083-062100-
CENTRAL AND SOUTH CENTRAL VIRGINIA

CITY           SKY/WX    TMP DP  RH WIND       PRES   REMARKS
RICHMOND       LGT RAIN  46  45  96 N10       29.72F FOG
CHESTERFIELD*  CLOUDY    46  30  53 N7        29.74F
PETERSBURG*    LGT RAIN  46  45  97 N6        29.71F
HANOVER        RAIN      44  42  93 CALM      29.75F FOG
TAPPAHANNOCK*  RAIN      47  47 100 NE8       29.75F
QUINTON*       CLOUDY    47  47 100 NE7       29.72F FOG
CHARLOTTSVILLE RAIN      40  38  93 N7        29.82F FOG
GORDONSVILLE*  CLOUDY    39  38  99 NW3       29.82R FOG
ORANGE*        HVY RAIN  39  39 100 N10       29.81F
LOUISA*        RAIN      43  43 100 N8        29.76F
BUMPASS*       CLOUDY    41  41 100 N6        29.77F
FARMVILLE*     LGT RAIN  42  42  99 N6        29.76R
CREWE*         CLOUDY    42  42 100 N6        29.72F
FORT PICKETT*  CLOUDY    44  40  88 N7        29.71F
CHASE CITY*    CLOUDY    42  41  95 N6        29.71F
CLARKSVILLE*   CLOUDY    43  43 100 N7        29.70F
SOUTH HILL*    CLOUDY    44  44 100 N7        29.73F
LAWRENCEVILLE* CLOUDY    46  45  97 NW5       29.69S
EMPORIA*       HVY RAIN  46  46 100 N5        29.67F
$$

VAZ088>098-062100-
SOUTHEAST VIRGINIA

CITY           SKY/WX    TMP DP  RH WIND       PRES   REMARKS
NORFOLK        LGT RAIN  55  53  93 E15G23    29.67F FOG
VIRGINIA BEACH LGT RAIN  55  54  96 E15G24    29.67F VSB 3/4
NORFOLK NAVAL  LGT RAIN  54  53  97 E16G29    29.69F VSB 1
WEST POINT*    CLOUDY    49  48  97 E14       29.72F
SALUDA*        CLOUDY    48  48 100 E9G18     29.73F
NEWPORT NEWS   LGT RAIN  51  50  96 E16       29.69F VSB 1
LANGLEY AFB    NOT AVBL
FORT EUSTIS    NOT AVBL
WILLIAMSBURG*  CLOUDY    52  52 100 E6G22     29.69F
HR EXEC AP*    CLOUDY    55  52  88 E10G16    29.66F
FRANKLIN*      DRIZZLE   52  51  97 NE10      29.65F
US460-WAKEFLD  LGT RAIN  50  50 100 VRB7      29.67F VSB 1
$$

VAZ020-022-025-037-045-062100-
WEST CENTRAL AND SOUTHWEST VIRGINIA

CITY           SKY/WX    TMP DP  RH WIND       PRES   REMARKS
STAUNTON*      MIX PCPN  37  36  97 NW6       29.85F
WAYNESBORO*    CLOUDY    36  35  96 CALM      29.83S VSB 1/2
HOT SPRINGS VA MIX PCPN  30  30 100 CALM      29.69F VSB<1/4
LYNCHBURG      HVY RAIN  39  37  92 N10G21    29.79F FOG
DANVILLE       HVY RAIN  41  41 100 N12       29.77R FOG
SOUTH BOSTON*  CLOUDY    42  41  96 N10       29.72F
MARTINSVILLE   CLOUDY    40  38  92 N8        29.80F
ROANOKE        LGT RAIN  40  38  93 N6        29.82R
BLACKSBURG     LGT RAIN  38  37  99 E7        29.78F
DUBLIN*        LGT RAIN  39  39  99 E3        29.77F
MARION*        DRIZZLE   40  39  95 E8        29.75F
HILLSVILLE*    CLOUDY    37  37 100 CALM      29.73F
RICHLANDS*     RAIN      42  41  97 SE5       29.67F
WISE*          LGT RAIN  45  45 100 S6        29.70S
ABINGDON*      DRIZZLE   44  42  93 E9        29.70S
$$

MDZ021>025-VAZ099-100-062100-
SOUTHERN MARYLAND AND THE DELMARVA PENINSULA

CITY           SKY/WX    TMP DP  RH WIND       PRES   REMARKS
PATUXENT RIVER LGT RAIN  46  45  96 E18       29.76F FOG
BAY BRIDGE APT LGT RAIN  43  41  93 NE8       29.86S FOG
LEONARDTOWN    CLOUDY    45  43  93 E9        29.79F
DOVER          NOT AVBL
GEORGETOWN     RAIN      49  46  90 E13       29.85F FOG
EASTON         LGT RAIN  45  43  93 E10       29.85F FOG
CAMBRIDGE      CLOUDY    43  43 100 E7        29.80F
SALISBURY      LGT RAIN  49  47  93 E15       29.78F FOG
OCEAN CITY     LGT RAIN  50  47  89 E15G26    29.83F FOG
WALLOPS ISLAND CLOUDY    50  48  93 E22G30    29.78F
ACCOMACK*      RAIN      51  49  93 E18G29    29.74F
$$

NCZ012>017-030>032-062100-
NORTH CENTRAL AND EASTERN NORTH CAROLINA

CITY           SKY/WX    TMP DP  RH WIND       PRES   REMARKS
ROANOKE RAPIDS DRIZZLE   50  50 100 NE6       29.65F
RALEIGH        LGT RAIN  48  46  93 NE3       29.68F VSB 1
ELIZABETH CITY CLOUDY    59  58  96 E14G25    29.64F
AHOSKIE*       DRIZZLE   53  53  99 CALM      29.64F
EDENTON*       LGT RAIN  59  58  94 E10G17    29.64F
CURRITUCK*     DRIZZLE   58  58 100 E10G17    29.66F
KILL DEVIL HLS RAIN      59  59 100 E12G22    29.62F
MANTEO         LGT RAIN  61  61 100 SE16G23   29.63F
CAPE HATTERAS  CLOUDY    65  63  93 E17G26    29.62F FOG
TARBORO*       NOT AVBL
GOLDSBORO      NOT AVBL
WASHINGTON     CLOUDY    58  58  98 NE6       29.61F FOG
GREENVILLE     LGT RAIN  57  55  94 NE3       29.65F
NEW BERN       MOSUNNY   67  63  87 SE12G23   29.60F
WILMINGTON     CLOUDY    66  66 100 CALM      29.62F
$$

VAZ048-062100-
ELSEWHERE

CITY           SKY/WX    TMP DP  RH WIND       PRES   REMARKS
HARRISBURG PA  RAIN      38  38 100 CALM      29.93R FOG
BALTIMORE      LGT RAIN  43  40  89 NE10      29.87F FOG
ANNAPOLIS      LGT RAIN  44  40  85 NE7       29.86F FOG
ANDREWS AFB    NOT AVBL
PHILADELPHIA   LGT RAIN  44  38  79 E13       29.92F
HENDERSON NC   RAIN      42  41  97 N5        29.69F
GREENSBORO     RAIN      43  42  97 N8        29.75R
ROCKY MOUNT    FOG       50  50 100 N5        29.64F VSB 1
$$

VAZ100-062100-
MARINE

STATION/POSITION TIME  TEMP    WIND        PRES    WAVE   SWELL
                       AIR SEA DIR/SP/G            HT/PER HT/PER
                 (UTC) (F)     (DEG/KT/KT) (MB)    (FT/S) (FT/S)
BRANDYWINE LGT   1936   48     100/ 21/ 23   N/A
CAPE MAY NJ      1936   48 48   70/  9/ 14 1011.1F
LEWES DE         1936   50 48  100/ 19/ 24 1010.9F
OCEAN-CITY-INLET 1936   51 50  110/ 15/ 23 1010.7F
WACHAPREAGUE VA  1936   51 49   80/ 20/ 24 1007.8F
GOOSES REEF MD   1950   45      90/ 17/ 21 1009.5F
COVE POINT MD    1936   45      90/ 14/ 19 1009.6F
SOLOMONS ISLAND  1936   46 50   60/ 16/ 21   N/A
BISHOPS HEAD MD  1936   47 46   70/ 13/ 17 1008.7F
PINEY POINT MD   1942          100/ 17/ 22   N/A
POTOMAC MD       1950   48      80/ 17/ 21 1006.3F
CAMBRIDGE MD     1936   45 47   50/ 14/ 17 1008.7F
LEWISETTA VA     1936   47 48   80/ 17/ 23 1007.3F
RAPPAHANNOCK LGT 1942           80/ 25/ 28 1006.9F
STINGRAY PT      1950   50     100/ 19/ 23 1006.9F
YORK RVR RNG VA  1936   51      90/ 20/ 24 1005.8F
YORKTOWN VA      1936   51 51   90/ 19/ 22 1006.0F
JAMESTOWN VA     1950   50      90/ 12/ 17   N/A
DOMINION TERM VA 1936   53      80/ 16/ 22 1005.8F
KIPTOPEKE VA     1942      52  100/ 15/ 23   N/A
CHES BAY BRIDGE  1942   54 54  100/ 24/ 30 1005.2F
CAPE HENRY VA    1942   54      80/ 26/ 29   N/A
WILLOUBY STN VA  1942   53      90/ 20/ 24 1006.0F
S CRANEY ISL VA  1942   54      90/ 12/ 18 1004.9F
CAPE HENRY BUOY  1942      56                N/A     7/ 6   2/11
1ST LANDING BUOY 1950   54                 1004.8F
CAPE CHARLES BUO 1956      55                N/A     8/ 6   2/11
OFFSHORE WE BUOY 1921      56                N/A     8/ 6   2/12
64NM E OF VA BCH 1950   62 60  110/ 27/ 33 1005.0F   9/ 6   3/10
DUCK PIER NC     1942   58 54  100/ 22/ 27 1003.6F
44100 DUCK FRF   1935      56                N/A     7/ 6   2/12
OREGON INLET NC  1942   61 56  110/ 21/ 30 1001.5F
HATTERAS NC      1942   64 60   90/ 13/ 19 1002.7F
DIAMOND SHLS NC  1950   70 76   80/ 29/ 37 1001.7F  10/ 8   2/11
$$




USA.gov is the U.S. government's official web portal to all federal, state and local government web resources and services.